GSAT-8

Last updated on Thu Nov 21 2024 00:02:41 GMT+0000 (Coordinated Universal Time)

1 37605U 11022A 24325.09176097 .00000086 00000+0 00000+0 0 9994 2 37605 0.6418 89.1163 0008686 167.9393 250.6864 1.00271460 47469
UTC large
Height (km)
Speed (km/s)
/
Latitude / Longitude
Inclination (degrees)
Orbital Period (minutes)
Azimuth
Elevation
Range (km)
Doppler Factor

Next 0 passes for location: London (51.5072 / 0.1276)

Sorry there are no passes over London.